Location: B?lite?ti
(46.2833°N, 22.7333°E)
Time: 04:09:18
(UTC+00:00)

CZ-2C R/B - Pass Details

Date: 24 January 2021
Orbit: 785 x 870 km, 98.2° (Epoch: 26 February)

Event Time Altitude Azimuth Distance (km) Brightness Sun altitude
Exits shadow 16:29:01 15° 63° (ENE) 2,189 4.2 -11.6°
Maximum altitude 16:31:05 18° 89° (E) 2,024 4.1 -11.9°
Drops below altitude 10° 16:34:43 10° 130° (SE) 2,510 4.8 -12.5°
Sets 16:37:57 0° 149° (SSE) 3,445 5.7 -13.1°
